Retour au catalogue

DELTA 1 DEB

ActifLEO
NORAD 10836·DEBRIS·🇺🇸 United States

Lancé Jul 29, 1976 depuis Vandenberg Space Force Base

Loading…

Prochains Passages (prochaines 24 heures)

TLE

FraisSource: Space-Track

Époque: Sep 14, 2026, 05:38 UTC

1 10836U 76077CG  26257.23529950 -.00000076  00000-0 -36636-3 0  9994
2 10836 102.1076   5.4720 0181685 248.8993 139.3169 12.07718470564371

Suivez DELTA 1 DEB en temps réel avec AllMySat

Download on the App Store